GEFSNGP_500_meanwind_192.txt.gz
Wind_Speed
35 35 34 33 31 31 31 30 28 24 22 19 19 19 18 16 16 16 15 14 14 14 13 13 13 12 12 12 12 12 13 13 14 14 14 15 15 15 15 15 14 14 14 14
36 35 36 35 34 32 31 30 29 26 23 20 20 20 19 17 17 16 15 15 14 14 13 13 13 12 12 12 13 13 13 14 14 14 15 15 15 16 16 16 15 14 14 14
35 34 35 36 34 33 32 31 29 27 23 21 21 20 20 19 18 16 15 15 15 14 13 13 13 13 13 13 14 14 14 15 15 15 15 15 16 16 16 16 16 16 15 15
34 34 37 35 33 33 32 31 29 27 25 24 22 21 21 20 19 18 17 16 16 15 14 14 13 13 14 14 15 15 16 17 16 16 16 16 16 16 16 16 16 16 16 15
35 35 36 35 34 32 32 31 30 28 27 25 24 23 23 22 21 20 19 18 17 17 16 15 14 14 15 16 16 17 18 18 17 17 17 17 17 17 17 17 16 16 15 16
36 36 36 35 33 33 32 32 30 29 27 26 25 25 24 23 22 21 21 20 19 18 18 16 16 16 16 17 18 19 19 19 19 19 18 18 18 18 18 17 17 16 15 15
37 36 35 34 33 33 33 32 29 29 28 26 25 24 24 24 23 23 22 22 21 20 20 19 18 17 17 19 20 20 20 20 20 19 19 18 18 18 18 18 17 16 16 16
38 36 35 33 33 33 32 31 29 28 28 26 26 25 24 24 24 24 24 23 22 21 19 18 18 18 19 20 21 21 21 21 20 19 20 20 19 19 18 18 17 17 17 18
38 37 34 33 33 32 32 31 30 28 27 27 26 26 25 25 25 25 24 23 22 22 21 20 20 19 20 21 21 22 22 21 21 21 21 21 20 20 19 19 18 19 19 20
39 36 35 33 33 32 32 31 30 30 29 29 28 27 26 25 26 26 25 25 24 23 23 23 22 21 21 22 22 22 22 22 22 22 22 22 21 21 20 20 20 20 21 21
39 37 35 34 33 33 32 32 32 31 30 30 30 29 28 27 27 27 27 27 26 25 24 24 23 22 22 22 22 23 23 23 23 23 23 22 21 22 22 22 22 22 22 23
39 38 36 35 34 34 33 33 33 32 31 30 30 30 30 29 28 28 28 28 27 25 24 24 23 23 23 23 23 24 24 24 24 24 24 23 23 23 23 23 23 23 24 24
39 39 38 36 35 34 34 34 33 32 32 31 31 31 30 30 30 29 28 28 27 26 25 25 24 24 24 24 25 25 25 25 24 24 23 23 23 24 24 23 23 24 24 24
39 38 38 37 36 35 34 34 33 32 32 31 32 32 31 30 30 29 28 28 27 27 26 26 26 25 25 26 26 26 26 26 26 26 25 24 25 25 25 25 24 24 24 25
38 38 37 36 35 34 34 34 33 32 33 33 31 31 30 30 30 30 29 28 28 28 27 27 27 26 27 27 27 27 27 27 26 27 26 25 26 26 25 25 25 25 25 25
36 37 37 36 35 34 34 35 35 33 31 31 31 31 30 29 29 30 31 30 28 28 28 27 27 27 27 28 28 28 27 26 26 26 26 25 24 25 25 25 25 25 26 26
35 35 35 35 35 35 33 33 33 33 31 31 30 30 30 28 29 29 29 28 28 28 28 28 27 27 27 27 27 27 27 27 26 26 25 25 25 25 25 26 26 26 27 27
34 34 34 34 34 33 32 31 31 32 31 30 30 29 29 29 29 28 29 29 28 28 27 26 27 27 27 27 27 27 27 26 26 25 25 24 25 26 26 26 26 26 27 27
32 33 33 32 32 32 31 31 31 31 31 30 30 29 29 28 28 29 30 29 29 28 27 27 27 28 28 27 27 27 27 26 26 25 25 25 26 26 26 26 26 26 28 27
30 31 31 31 31 32 32 30 29 28 28 29 29 29 28 28 28 28 29 29 28 27 27 27 27 27 27 27 27 27 27 27 26 26 25 26 26 26 27 26 27 27 26 26
27 28 29 29 28 29 30 29 29 28 27 27 28 28 28 27 27 27 27 27 26 26 26 26 26 26 26 26 26 27 26 26 25 24 25 25 26 27 27 26 26 26 25 25
25 25 25 25 26 27 28 28 29 28 28 28 28 28 28 28 27 27 27 26 25 25 25 25 25 26 26 26 26 26 25 25 24 24 24 24 25 25 25 25 25 25 25 25
23 23 22 23 24 24 25 26 27 27 27 27 27 27 27 26 26 25 25 25 24 24 25 25 25 25 24 25 25 25 24 24 24 24 23 24 24 24 24 25 24 24 25 24
22 22 22 22 23 23 24 25 26 26 25 26 26 25 24 24 24 24 24 24 24 24 24 23 23 23 23 23 23 22 22 23 23 23 23 23 23 23 24 24 24 24 24 24
20 20 20 21 22 22 23 24 24 24 25 25 24 23 23 23 23 23 23 23 22 22 22 22 22 22 22 21 22 22 22 22 22 23 23 23 23 24 23 23 23 23 23 24
19 19 20 20 21 21 22 22 22 22 23 23 23 22 22 22 22 22 22 21 21 21 20 20 21 21 21 21 22 22 22 22 22 23 24 23 23 23 23 23 23 23 23 24
17 18 18 19 19 20 20 20 20 20 20 21 21 21 21 21 20 20 20 20 20 19 20 20 20 20 20 20 21 22 22 22 22 22 22 23 23 23 23 23 23 24 25 25

GEFSNGP_500_meanwind_198.txt.gz
Wind_Speed
34 32 31 31 31 30 29 26 24 22 21 19 17 17 17 16 16 16 15 14 13 13 12 11 11 11 11 10 11 11 11 11 12 13 14 14 15 15 15 15 15 15 16 16
35 33 32 33 32 31 31 29 27 25 23 21 19 18 17 17 17 17 17 16 14 14 13 12 12 12 11 11 12 12 12 13 13 14 15 15 16 16 15 15 15 16 16 16
33 33 33 34 33 32 32 31 29 27 25 22 21 20 19 18 18 18 18 17 16 15 14 14 13 13 12 12 13 13 13 14 15 15 16 16 17 17 17 16 16 16 16 17
32 33 34 33 32 32 32 31 30 28 26 24 23 22 21 20 19 19 19 18 17 17 16 16 15 15 14 14 14 14 15 15 16 16 16 17 18 18 18 18 18 18 17 17
32 31 33 34 32 31 31 31 30 29 27 26 24 24 23 22 21 20 20 19 19 18 18 17 17 16 16 17 16 16 16 16 17 17 17 18 19 19 18 18 18 18 17 17
33 30 30 32 31 30 31 32 31 30 28 27 26 25 23 22 22 21 21 21 20 20 19 18 18 18 18 18 18 18 18 18 17 18 18 19 19 19 19 19 18 18 18 19
33 32 31 31 30 29 31 31 30 30 29 28 28 26 24 23 23 23 23 23 22 22 21 20 20 19 19 19 20 20 19 19 19 19 19 19 19 20 20 20 19 19 20 20
34 32 31 31 30 30 30 30 29 29 29 29 28 27 26 25 25 24 24 24 23 23 22 21 21 21 21 21 21 21 20 20 20 19 19 19 20 20 20 20 20 20 21 20
36 35 33 32 31 30 30 29 29 29 28 28 28 28 27 26 26 26 25 24 24 24 23 23 23 22 23 22 21 21 21 21 20 20 20 20 21 21 22 21 21 21 21 22
36 36 35 33 32 31 30 29 28 28 28 28 28 28 28 27 27 26 26 25 25 25 24 24 24 24 23 23 22 21 21 21 21 21 21 21 22 23 23 23 22 22 22 23
36 36 35 34 33 32 31 29 28 28 28 28 28 28 28 28 27 26 26 26 26 26 26 26 25 25 24 23 23 22 22 22 22 22 22 23 24 24 24 24 23 24 24 24
35 35 35 35 33 32 31 30 29 28 28 28 29 29 29 29 28 28 27 27 27 28 28 27 26 26 25 24 24 24 23 23 23 23 23 24 25 25 24 25 25 25 25 26
35 35 35 34 34 33 32 31 30 30 30 29 29 29 29 29 30 30 29 29 29 29 29 28 28 28 27 26 26 26 26 25 25 25 25 25 25 25 25 25 26 27 27 27
36 35 34 34 33 33 31 30 30 31 31 31 31 31 30 31 31 31 31 31 31 30 30 29 29 28 28 28 27 27 27 27 26 26 26 26 26 26 26 27 27 28 27 27
36 35 35 34 33 32 32 31 30 31 32 32 32 32 32 32 32 32 32 32 31 31 30 30 30 30 30 30 29 28 28 28 27 27 27 27 27 27 26 27 27 27 26 26
33 34 35 34 34 34 33 32 31 31 31 32 32 32 33 32 32 32 32 32 32 31 31 31 31 31 31 30 29 29 29 28 28 28 28 28 27 27 27 27 27 26 26 26
31 32 33 34 34 34 34 33 32 31 30 31 31 32 32 32 32 31 31 32 31 31 30 30 31 31 31 31 31 30 29 29 29 29 29 28 28 28 28 27 27 26 26 27
30 30 32 32 33 33 33 33 32 31 31 31 31 32 32 32 32 31 31 32 32 32 31 30 31 31 31 31 32 32 30 29 28 29 28 28 27 27 27 27 27 27 26 26
30 30 30 30 31 32 32 32 32 31 31 32 32 32 32 32 33 33 32 32 32 32 31 31 31 31 30 31 31 30 29 29 28 28 27 27 27 27 27 27 27 27 27 27
29 29 29 30 30 31 31 31 31 31 31 31 31 32 32 31 30 30 30 30 30 30 30 30 30 31 31 30 29 29 29 28 27 27 28 28 27 27 27 27 27 26 26 26
28 28 28 29 29 30 29 29 29 30 30 30 31 31 31 30 29 29 29 29 29 29 29 29 29 29 28 28 28 29 28 27 27 27 27 27 27 27 27 27 26 25 26 26
27 27 28 28 29 29 29 29 29 29 29 29 29 29 30 29 28 28 28 28 28 28 28 28 27 27 27 27 27 27 27 27 26 26 26 27 26 26 26 26 26 26 26 27
26 26 27 27 27 28 28 28 27 28 28 28 28 28 28 28 28 27 27 27 27 27 27 26 26 26 26 26 26 26 26 25 25 26 26 26 26 27 27 26 26 27 27 28
25 25 26 26 26 27 27 27 27 28 28 28 28 28 28 27 27 27 26 26 25 25 25 25 24 25 25 25 25 24 24 24 25 26 26 26 26 26 26 26 26 27 27 27
22 23 24 25 25 25 26 27 26 26 26 26 26 25 25 25 25 25 25 25 24 23 23 23 23 23 23 23 23 23 23 23 24 24 25 25 25 25 25 25 26 26 27 27
20 21 21 22 23 24 25 25 26 26 25 25 25 24 24 24 25 25 24 24 24 23 23 22 22 22 22 22 22 22 22 23 24 24 24 24 24 25 24 25 25 26 26 27
18 19 20 21 22 23 24 24 25 24 24 24 24 24 24 24 23 23 23 23 22 21 21 20 20 20 20 21 21 21 21 22 23 23 24 24 24 24 24 25 25 26 26 26

GEFSNGP_500_meanwind_204.txt.gz
Wind_Speed
32 28 26 24 24 24 26 26 24 21 23 22 21 21 19 19 18 17 16 15 15 15 14 13 13 13 13 14 14 14 15 15 15 15 15 16 16 17 17 17 17 17 17 17
35 32 30 27 24 24 25 25 25 22 22 23 25 22 21 20 19 18 18 17 16 15 15 15 15 14 15 15 15 16 16 16 16 16 17 17 18 18 18 18 18 18 18 18
36 33 30 30 28 25 25 25 26 26 26 25 25 24 23 22 21 20 19 18 17 16 16 16 16 16 16 17 17 17 17 17 17 17 18 18 19 19 19 19 19 19 19 18
34 33 34 31 28 27 27 26 26 26 26 27 27 26 25 24 23 22 20 19 18 17 17 18 18 18 18 18 18 18 19 19 19 19 19 19 20 20 19 19 19 19 19 18
35 33 33 31 29 27 28 29 29 29 29 29 29 29 28 27 26 24 21 20 19 18 18 19 19 19 19 19 20 20 20 21 20 20 20 21 21 20 20 20 19 19 19 19
35 33 32 30 29 28 29 31 30 31 30 30 30 29 28 28 27 25 23 22 21 20 20 20 20 20 20 20 21 21 22 22 22 21 22 21 21 20 20 20 20 20 19 19
35 33 31 30 29 28 31 32 31 32 32 32 31 30 28 27 27 26 25 24 23 21 21 21 21 21 22 22 22 23 23 22 22 22 23 22 22 22 21 21 22 21 21 21
36 34 33 31 31 33 33 32 32 32 33 33 32 32 30 29 28 26 26 25 24 23 23 23 24 24 24 23 23 24 24 23 23 23 23 23 23 23 22 22 22 23 23 23
36 38 37 34 34 35 36 35 34 34 33 33 33 32 32 30 28 28 28 27 26 25 25 25 25 25 25 25 25 25 25 25 24 24 24 24 24 24 24 23 24 24 24 24
37 37 37 37 37 37 37 36 36 35 34 34 33 32 32 31 31 30 30 29 28 28 27 27 27 26 26 26 26 26 26 26 25 24 24 25 25 25 25 25 25 25 25 25
41 39 38 38 37 38 37 36 36 35 34 33 33 34 33 32 31 31 30 30 29 29 29 28 28 27 27 27 27 27 27 26 26 25 26 26 27 27 27 26 26 26 26 26
40 41 39 38 38 38 37 35 36 35 34 33 33 34 32 31 31 30 30 30 30 30 29 29 29 29 28 28 28 28 27 27 27 27 27 28 27 27 27 28 28 28 28 28
38 38 39 38 37 36 36 36 36 35 35 34 34 34 32 32 31 31 30 30 30 31 31 30 30 30 29 29 29 28 28 28 28 28 29 29 28 28 29 29 29 29 29 29
37 36 37 38 36 35 35 35 35 35 34 33 33 33 33 32 31 31 31 31 31 31 31 30 30 30 30 30 30 29 29 30 29 29 29 29 29 29 29 30 30 30 30 30
37 36 36 37 36 35 35 35 35 35 34 33 33 33 33 32 31 31 32 32 32 31 31 31 31 30 30 30 30 30 31 30 30 29 29 30 30 30 30 30 31 31 30 31
36 36 35 35 36 36 36 35 35 34 34 33 32 33 33 32 31 31 32 32 32 32 32 32 32 31 31 30 30 30 30 30 30 30 30 31 31 31 31 31 31 30 30 30
33 34 34 34 35 35 34 36 34 34 33 33 33 33 33 33 32 33 33 33 33 33 33 33 33 32 32 31 31 31 30 30 31 31 32 32 32 32 32 32 31 31 31 30
33 33 33 33 34 34 33 35 36 34 33 33 33 32 32 32 32 33 33 33 33 33 33 33 34 34 33 33 31 31 32 32 32 33 33 33 33 33 32 32 31 31 31 30
30 32 32 32 32 33 33 33 34 35 34 33 33 34 34 34 33 33 32 32 32 32 32 33 33 33 33 33 33 33 32 33 33 33 33 33 32 32 32 31 31 30 29 28
29 30 30 31 31 32 33 33 33 33 33 33 33 33 34 34 33 32 32 31 31 31 32 32 32 32 32 32 32 32 33 33 33 32 32 31 32 31 31 30 30 29 28 28
28 29 30 31 31 31 32 32 33 33 33 33 33 33 33 33 32 32 32 32 31 30 30 31 31 31 31 32 32 32 32 31 31 31 31 31 31 31 30 30 29 29 28 28
28 29 29 30 30 30 30 31 32 32 32 32 32 33 33 32 32 33 33 33 32 31 30 30 30 31 30 31 31 30 30 29 29 29 30 31 30 30 29 29 28 28 28 28
28 29 30 30 31 30 30 30 31 32 32 31 31 32 32 32 32 31 31 32 32 31 31 30 30 30 30 30 29 28 28 28 28 28 28 29 29 28 28 27 27 27 28 29
27 28 29 29 30 30 30 30 30 31 31 31 31 30 30 30 31 31 30 30 30 30 29 28 28 28 29 28 27 26 26 26 26 26 26 26 27 27 27 27 27 28 28 28
27 28 28 28 29 29 29 29 29 29 29 30 30 29 29 28 28 29 29 28 28 28 28 28 27 27 27 27 26 25 25 25 26 26 26 26 26 26 27 28 28 27 27 27
26 27 27 28 27 27 27 28 28 27 27 28 28 28 28 27 27 28 28 28 29 28 28 27 27 27 26 26 25 25 25 25 25 25 26 26 27 27 26 26 27 27 27 27
24 25 26 26 26 26 26 26 26 26 26 27 27 27 27 27 27 27 27 27 26 26 26 26 26 26 26 25 25 24 24 24 24 24 25 25 25 25 25 25 25 26 26 27

GEFSNGP_500_meanwind_210.txt.gz
Wind_Speed
33 31 31 31 29 28 30 31 29 27 27 24 19 17 16 14 12 11 13 13 12 11 9 9 9 9 10 10 10 10 10 11 12 12 13 13 13 14 14 14 15 15 15 14
35 34 33 32 30 28 29 29 29 28 28 25 21 20 18 17 14 14 16 15 13 12 11 10 10 10 11 11 11 11 12 12 13 13 14 15 15 15 14 14 15 15 16 15
37 36 36 35 30 29 28 29 29 28 27 25 25 23 22 21 19 19 19 18 16 14 12 12 12 12 12 12 12 13 13 13 14 14 15 15 15 15 15 15 15 15 16 16
37 37 39 35 32 30 30 29 29 29 28 27 26 26 26 25 23 22 21 20 18 15 14 14 13 13 13 13 13 13 13 14 15 15 15 15 16 16 16 16 16 16 16 17
38 38 39 37 34 32 32 31 30 29 28 28 28 28 28 27 25 24 22 21 20 18 17 16 15 15 15 15 15 15 15 16 16 16 16 16 17 17 17 16 17 17 18 18
39 39 39 37 36 34 34 34 31 30 29 28 28 29 29 28 27 26 25 24 21 20 19 18 17 16 16 16 16 17 17 18 17 17 17 18 18 18 17 18 18 18 18 19
40 40 39 37 36 36 36 34 32 31 31 30 30 29 28 27 26 25 25 25 22 21 20 20 19 18 18 17 17 18 19 19 18 18 19 19 18 18 18 19 19 19 19 20
40 40 40 38 38 39 38 35 34 33 33 33 32 31 29 27 27 27 25 25 24 23 22 21 21 20 20 20 19 20 20 20 20 20 20 20 20 20 20 20 20 20 20 20
40 40 39 39 39 39 38 37 36 35 35 35 34 33 32 31 30 29 28 28 27 25 23 23 23 22 22 21 21 21 21 22 22 22 22 21 21 22 21 22 22 22 22 22
41 40 40 39 39 39 39 38 36 35 36 36 36 34 34 33 31 31 30 29 28 27 26 25 25 24 23 23 24 23 23 24 24 24 23 23 23 23 23 23 23 23 23 23
41 41 40 41 40 40 39 39 38 37 38 36 36 36 36 35 33 31 31 30 29 28 28 27 27 26 25 25 25 25 25 25 25 25 25 25 24 24 24 24 24 24 24 24
40 39 40 41 41 41 41 40 39 39 39 38 37 38 37 36 35 33 32 31 30 30 28 28 27 27 26 26 27 27 27 27 26 26 26 25 24 24 24 24 25 25 24 25
39 39 39 40 41 41 41 41 40 40 40 40 39 38 38 38 36 35 33 32 31 30 29 29 29 29 28 28 28 28 27 27 27 27 27 26 25 25 25 25 25 25 25 26
39 39 39 40 39 41 40 40 40 39 39 38 38 38 38 37 36 35 34 33 33 31 30 30 30 29 29 29 29 28 28 28 28 27 27 27 26 26 26 26 25 25 26 26
39 39 38 37 38 38 37 36 37 37 37 37 37 38 37 36 36 36 34 34 34 32 31 30 30 30 30 30 29 29 29 29 28 28 28 28 27 27 27 26 26 26 27 27
37 38 38 37 37 38 37 36 36 36 36 36 36 37 38 36 34 33 33 33 33 32 31 30 30 31 30 31 30 30 30 30 30 29 28 28 28 28 28 27 27 27 27 27
34 35 34 33 35 36 37 36 36 36 35 35 36 36 36 35 33 32 32 32 32 31 31 30 30 30 30 30 30 30 30 30 30 29 28 27 28 28 28 28 28 27 27 27
32 32 31 31 32 33 34 35 35 34 33 33 34 35 34 33 32 31 31 30 30 30 30 30 30 30 30 29 30 29 29 29 29 30 28 28 29 29 29 29 28 27 28 28
29 29 30 29 29 30 31 31 31 31 31 31 31 31 31 31 31 31 31 30 29 29 29 30 29 29 29 29 29 29 29 29 30 29 29 29 29 29 29 28 28 28 28 28
27 27 27 26 26 27 29 30 29 29 29 30 29 29 29 29 29 29 29 29 28 28 28 28 28 28 28 28 29 29 29 29 29 29 29 29 29 28 27 27 28 27 27 27
23 23 24 25 26 25 25 26 26 27 27 27 27 27 28 27 27 26 26 26 27 27 27 27 27 28 28 28 29 29 29 29 28 28 28 28 27 27 26 27 27 27 27 27
21 22 22 22 23 23 24 25 25 26 26 26 26 27 27 26 25 25 26 26 27 26 27 27 27 27 27 28 28 28 27 27 27 26 26 26 26 26 26 26 27 27 27 27
20 20 21 21 22 22 23 24 25 25 26 26 26 25 25 26 26 26 26 26 26 26 26 26 26 26 26 26 26 26 26 26 25 25 25 25 25 25 26 26 26 26 26 26
20 21 21 22 23 22 23 24 24 25 25 25 25 25 25 26 26 26 26 26 25 25 25 25 25 25 25 25 25 26 25 25 24 24 25 25 25 25 25 25 25 26 26 26
21 22 22 22 23 23 22 23 24 24 25 25 25 25 25 26 27 27 27 26 26 25 25 25 25 25 25 25 25 25 24 24 24 24 23 24 24 24 24 24 24 25 25 25
21 22 22 23 23 23 23 23 23 23 24 24 25 25 25 25 26 26 26 26 26 26 25 24 24 25 25 25 25 25 25 25 25 24 24 24 23 22 23 24 24 24 24 24
21 22 23 23 23 23 23 23 23 23 24 24 23 24 24 24 24 25 26 26 26 25 25 24 24 24 25 25 25 25 25 25 24 24 23 23 22 22 22 23 23 23 24 24

GEFSNGP_500_meanwind_216.txt.gz
Wind_Speed
33 33 34 34 33 33 33 32 30 28 26 23 22 21 20 18 16 15 13 11 11 10 9 9 9 10 10 10 10 10 9 9 10 11 11 12 13 13 13 14 14 14 14 14
34 33 34 35 34 33 33 32 31 29 27 24 24 22 21 19 18 16 15 13 13 12 11 10 10 12 11 11 11 11 10 11 11 12 13 14 14 14 14 15 15 15 15 15
35 34 34 36 35 34 33 33 32 30 27 25 24 23 21 19 18 18 16 15 14 14 13 12 12 12 11 11 11 12 12 12 13 13 14 15 15 15 15 15 16 16 16 17
35 35 36 35 34 34 34 34 33 30 28 27 26 24 22 21 19 18 17 17 16 16 15 15 14 13 12 12 13 13 13 14 14 15 15 15 15 16 16 16 17 17 18 18
36 36 35 35 34 34 33 33 33 32 30 28 27 26 24 23 21 20 19 19 19 17 17 17 16 15 14 14 14 14 15 15 15 16 16 16 16 17 17 18 18 19 19 19
37 36 36 34 34 34 33 33 32 32 31 29 28 28 26 24 23 21 21 21 21 19 19 18 18 16 15 16 16 16 16 16 16 17 17 18 18 19 19 20 20 21 21 20
37 37 36 35 34 33 35 33 31 31 32 32 30 28 26 25 24 22 22 22 23 22 20 19 19 19 18 19 19 18 18 18 17 18 19 19 20 20 21 22 22 22 22 22
37 37 36 34 34 35 34 32 33 32 32 32 31 30 28 27 26 24 23 23 24 24 21 21 21 22 21 20 20 20 20 19 19 20 21 21 22 22 23 23 24 23 23 23
38 37 35 34 34 35 34 33 32 32 32 32 31 30 30 29 28 27 26 25 25 25 23 23 24 25 24 22 22 22 22 21 21 22 22 23 24 25 25 25 25 25 25 25
38 37 36 34 34 34 34 33 33 32 32 33 32 31 30 29 29 29 27 27 28 27 26 25 25 25 23 23 23 23 23 24 24 24 25 26 27 27 26 26 27 27 27 26
36 37 37 36 35 35 34 34 34 33 33 33 33 33 33 32 32 30 28 29 30 30 29 28 27 26 25 24 25 25 25 26 26 27 27 27 28 28 28 28 28 28 28 27
35 35 35 34 35 36 36 36 36 35 34 34 34 33 34 34 33 33 32 33 33 32 31 31 30 29 28 27 26 27 27 28 28 28 28 29 29 29 29 29 29 29 28 28
34 34 34 34 35 36 37 37 38 37 35 35 35 34 34 35 35 35 35 35 34 33 32 32 31 29 28 28 27 28 29 29 29 29 28 29 30 30 30 30 30 30 30 30
35 35 34 33 34 35 35 36 37 37 35 35 34 34 34 34 35 35 36 35 34 34 32 31 31 31 30 29 30 30 30 31 30 30 30 30 30 30 30 30 30 30 30 30
33 33 33 33 33 33 34 35 36 36 37 37 36 35 34 33 34 34 34 34 34 34 33 33 32 32 31 31 30 30 30 30 30 30 30 30 30 30 30 30 30 30 31 30
34 34 34 33 32 32 33 33 34 35 36 36 35 35 33 32 33 34 34 34 34 33 33 33 33 33 33 32 31 31 29 29 29 29 29 29 29 30 31 31 30 30 30 30
33 33 33 32 32 32 31 31 31 32 33 33 34 34 33 32 32 32 32 33 34 33 33 33 33 33 34 33 32 31 30 30 30 30 30 30 30 31 31 30 30 30 30 30
31 31 32 31 32 32 32 32 31 30 30 31 32 31 30 29 30 30 31 33 33 33 33 33 33 34 33 32 32 31 31 31 31 31 32 32 32 32 31 30 30 30 29 29
29 29 29 29 31 32 32 32 32 31 30 30 29 29 28 28 29 31 31 32 31 30 32 33 33 33 33 32 32 32 31 31 31 31 31 32 32 31 31 31 31 31 30 29
28 28 28 28 28 29 30 30 30 29 29 28 26 25 26 27 27 29 30 30 30 30 31 32 32 32 32 31 31 31 30 30 30 30 30 31 31 31 31 31 31 31 30 29
25 26 26 25 25 25 25 26 26 26 26 25 25 24 24 24 25 26 27 27 28 28 29 30 30 29 29 28 28 29 28 29 29 29 29 29 29 30 30 30 30 29 29 29
22 23 22 21 21 21 21 22 22 23 23 23 23 23 23 23 24 24 25 25 25 27 27 28 27 27 27 28 27 27 27 28 28 29 29 29 29 29 29 29 29 29 29 30
20 20 19 19 19 19 19 20 20 21 21 21 22 23 23 23 23 24 24 25 25 26 27 28 28 27 27 28 28 28 28 28 28 28 28 28 28 28 29 29 29 29 30 29
19 19 19 19 19 19 19 19 19 20 20 20 21 22 23 23 23 23 24 24 25 26 27 27 27 28 27 27 28 28 27 27 27 27 27 28 28 28 28 28 28 29 29 28
18 19 20 20 20 19 19 19 19 19 20 20 21 21 23 24 24 24 23 24 24 25 26 27 28 28 28 27 27 27 27 26 27 27 27 27 28 27 27 27 27 27 27 28
18 19 20 20 20 20 20 20 19 19 20 20 22 22 23 24 25 26 25 25 25 25 26 26 27 27 27 26 26 26 26 26 27 27 27 27 27 26 26 26 26 27 27 27
17 17 18 18 19 19 20 21 21 21 21 20 21 21 22 23 23 24 25 25 26 26 26 26 27 27 26 25 25 25 26 26 27 27 27 27 27 27 27 27 27 27 27 27

GEFSNGP_500_meanwind_222.txt.gz
Wind_Speed
32 31 31 31 31 31 31 29 27 25 24 22 21 19 18 17 16 16 15 14 14 13 13 12 11 11 10 11 10 10 10 10 10 10 10 10 10 11 11 11 11 12 12 13
33 33 33 32 32 32 31 30 29 27 26 24 22 21 20 20 18 17 17 16 15 14 14 13 13 12 12 12 12 12 12 12 11 11 11 11 12 12 12 13 13 14 14 15
32 32 33 34 33 32 31 30 29 28 27 26 24 23 22 20 20 19 18 18 17 16 15 15 14 14 14 14 14 13 13 13 13 12 13 13 13 13 13 14 14 15 15 16
31 32 34 33 33 32 32 31 30 29 28 27 25 24 23 23 22 21 20 20 20 19 18 17 17 16 15 15 14 14 14 14 14 14 14 14 14 14 15 15 15 16 16 17
32 32 32 33 32 32 32 32 31 30 29 28 26 25 25 25 24 23 22 21 21 21 21 20 19 18 16 16 16 16 16 16 16 15 15 15 15 16 16 16 17 17 18 19
33 31 31 32 31 31 31 32 32 31 30 29 28 27 27 27 26 25 24 23 23 23 22 22 21 20 19 18 18 17 17 17 18 18 17 17 17 17 18 18 18 19 19 20
34 32 32 32 31 31 31 31 30 30 30 30 30 30 29 28 28 27 26 25 24 24 23 23 23 22 22 21 20 20 20 19 19 19 19 19 20 19 19 20 20 21 21 21
34 33 34 33 31 32 32 31 31 30 31 31 30 30 30 29 28 29 28 28 27 26 26 26 25 24 24 24 22 22 21 20 20 20 20 21 21 21 21 22 22 22 23 23
35 35 34 32 32 32 32 32 31 30 31 31 31 31 30 30 29 29 30 29 29 29 28 28 27 27 26 25 23 22 22 22 22 22 23 23 23 24 23 23 23 24 24 24
35 35 34 33 32 32 31 31 31 30 29 30 30 29 29 29 30 30 31 31 31 31 30 30 30 28 27 26 25 25 25 26 25 25 25 25 25 25 25 24 25 25 26 26
35 34 34 33 33 31 31 31 32 31 30 29 29 29 29 30 30 31 31 32 33 32 32 31 31 30 30 29 28 28 28 28 27 26 26 26 27 27 26 26 27 27 27 27
34 33 33 32 33 32 31 31 31 32 32 32 31 31 30 31 31 31 31 32 33 32 32 32 32 32 32 32 31 30 29 29 27 27 27 28 28 28 27 28 28 28 28 29
33 33 33 32 32 32 32 31 31 32 33 33 33 33 32 32 32 32 32 33 33 32 33 33 33 33 34 34 33 32 31 30 30 29 29 29 29 29 28 29 29 29 29 30
32 32 31 31 31 31 31 30 31 31 32 32 33 33 34 33 33 33 33 33 34 34 34 34 35 35 35 35 35 34 33 32 31 30 30 31 31 30 30 30 30 30 31 31
32 32 31 30 30 30 30 30 30 31 32 32 33 33 34 34 34 34 33 33 34 35 35 35 35 34 34 35 34 34 34 33 32 32 32 31 31 31 30 30 30 30 30 31
32 32 31 30 30 29 29 30 30 31 32 33 33 34 34 34 35 35 34 34 35 34 33 32 32 32 33 34 33 33 34 33 32 31 31 31 31 30 30 30 30 30 30 30
30 31 31 31 30 30 30 30 30 31 32 33 33 33 33 33 34 34 34 33 34 33 33 32 32 33 34 33 33 33 33 33 32 31 32 32 32 32 31 31 31 30 30 29
30 30 29 29 29 30 30 30 30 30 30 31 31 31 32 32 32 33 32 32 33 33 32 32 32 32 32 33 33 32 32 32 31 31 31 32 32 32 31 31 30 30 30 30
29 29 29 28 28 28 28 28 29 29 29 29 30 30 31 31 31 31 31 31 31 32 32 32 32 32 32 32 32 32 32 32 31 30 31 31 31 30 30 30 29 29 29 29
28 28 28 27 27 27 27 27 27 28 28 29 30 31 31 31 32 31 31 31 31 31 31 31 31 31 32 32 32 32 32 32 31 30 30 30 30 30 30 30 30 30 30 30
26 26 26 26 26 25 26 26 26 27 27 28 29 30 31 31 31 31 30 29 29 29 30 30 31 31 31 31 32 32 31 30 30 30 30 30 30 30 30 30 30 30 31 31
26 25 25 26 25 25 25 25 26 26 26 27 27 28 28 29 29 28 28 28 28 28 28 28 29 30 30 30 30 30 30 30 30 30 30 30 30 30 30 30 31 31 31 32
25 25 25 24 24 23 23 24 24 25 25 25 26 26 26 26 26 26 27 27 27 27 27 27 27 28 29 29 30 30 30 30 30 30 30 29 30 30 30 31 31 31 30 31
23 23 23 23 23 23 22 23 23 23 23 23 24 24 24 25 26 26 26 26 26 27 27 27 27 28 28 29 29 29 29 29 29 29 29 30 30 30 30 30 30 29 29 30
20 20 20 21 22 21 21 21 21 22 22 21 21 21 22 23 23 24 25 26 26 27 27 27 27 28 28 28 28 28 28 28 28 28 28 29 28 28 28 28 28 29 29 29
18 18 19 19 20 21 21 21 21 20 20 20 20 20 20 21 21 21 22 23 23 23 24 24 25 26 27 29 29 28 27 27 27 27 28 28 27 27 28 27 27 28 29 29
17 18 18 19 19 19 20 20 20 20 20 21 21 21 20 20 20 20 21 22 22 22 23 24 25 25 26 27 27 26 25 26 27 27 27 27 27 27 27 28 28 28 28 27

GEFSNGP_500_meanwind_228.txt.gz
Wind_Speed
32 28 27 26 26 28 29 29 26 24 23 23 24 21 20 20 20 19 17 16 15 14 14 13 13 12 11 11 12 12 12 12 12 13 13 12 12 11 12 12 13 14 14 14
36 32 29 28 27 27 28 29 28 26 26 24 26 24 23 22 21 20 19 18 17 16 16 15 14 14 13 13 13 13 13 13 13 13 14 14 13 12 13 13 14 15 15 15
35 32 31 31 29 28 27 28 28 29 28 27 29 29 27 24 23 22 22 21 19 19 18 17 16 16 15 15 15 15 15 15 14 14 14 15 14 14 14 15 15 16 15 16
34 32 34 34 30 29 28 27 27 28 29 29 30 30 29 27 24 23 23 22 22 21 20 19 19 18 18 17 17 17 17 17 16 16 16 16 15 15 15 16 17 17 17 17
33 32 33 31 31 30 31 30 29 29 30 31 30 30 29 28 25 24 24 24 23 23 23 22 21 20 20 20 19 19 19 18 18 18 18 17 17 18 18 19 19 19 19 19
34 33 32 31 30 31 31 33 33 33 32 33 32 31 31 29 28 26 25 25 25 25 25 25 24 23 23 22 21 21 21 20 20 20 20 20 20 20 21 21 21 21 20 21
34 33 32 30 31 31 32 33 33 33 33 33 33 33 31 29 29 27 26 26 27 26 26 26 26 25 25 24 23 22 22 22 22 22 22 22 22 22 23 22 22 23 22 22
35 33 31 29 30 32 32 33 33 32 33 33 32 31 31 30 30 28 28 28 28 28 27 27 27 27 27 27 25 24 23 24 24 25 24 23 23 23 23 23 24 24 24 24
35 35 34 32 33 33 33 33 33 34 34 34 32 31 31 31 31 30 29 29 29 29 29 28 28 29 28 28 27 26 26 26 26 26 25 25 25 25 25 24 24 25 25 25
36 37 36 33 34 34 33 34 34 33 33 33 33 32 31 31 31 31 30 30 29 29 29 30 30 30 30 29 28 28 28 28 28 27 27 28 27 27 28 27 27 27 27 26
37 36 35 35 35 33 32 32 32 32 33 33 33 33 32 32 32 31 31 31 31 30 30 31 31 31 31 31 31 31 31 31 31 30 30 30 30 30 30 30 29 28 27 28
37 36 35 35 34 34 32 31 32 32 33 34 33 33 33 32 31 31 32 32 32 31 32 32 32 32 32 32 32 32 32 32 33 33 33 32 32 32 31 31 31 31 30 30
36 36 35 33 34 33 32 32 33 33 33 33 33 33 33 33 33 32 32 32 33 33 33 33 34 33 34 34 33 34 34 35 35 35 34 34 33 31 31 32 32 32 32 32
34 34 34 33 33 34 33 33 33 33 33 33 33 34 33 33 33 33 33 33 33 33 34 35 35 34 34 34 35 34 33 34 34 34 35 34 34 33 32 32 32 32 33 34
32 33 33 34 34 33 33 33 33 33 33 33 33 34 34 34 33 33 34 34 34 34 35 36 36 34 33 33 34 32 32 33 33 34 34 34 34 34 33 33 33 33 34 35
32 31 32 32 33 32 31 31 32 32 32 32 33 33 33 33 33 34 34 34 34 34 35 36 36 35 35 35 34 33 33 33 33 33 34 35 35 34 34 34 34 33 34 34
31 31 30 31 31 31 30 30 31 31 32 32 32 32 33 33 33 34 34 34 34 34 34 33 34 34 34 34 33 33 33 33 34 34 35 34 34 33 34 35 35 34 34 33
30 30 31 31 31 31 31 31 31 32 33 33 33 33 33 33 34 34 35 35 34 34 33 32 32 32 33 32 32 33 34 34 35 34 33 33 33 33 33 33 34 34 34 33
29 29 30 31 30 30 31 31 31 31 31 31 32 32 32 32 31 32 33 33 33 33 32 32 32 32 32 32 33 33 34 35 35 35 34 34 33 33 33 33 32 32 32 31
29 29 29 30 30 30 30 30 30 30 30 30 30 30 31 31 31 31 32 32 33 33 33 33 33 32 32 33 33 34 34 34 34 34 33 33 33 34 33 32 31 31 31 30
28 27 28 29 28 28 29 29 29 29 29 29 29 30 30 30 30 30 30 31 31 32 32 32 32 32 32 32 33 34 34 34 34 34 34 33 33 33 32 31 30 30 30 30
28 28 27 27 27 27 27 28 28 28 28 27 28 28 29 29 30 30 31 31 31 31 31 31 31 31 32 33 33 34 34 34 34 34 34 33 32 32 31 29 29 29 30 30
25 26 26 26 25 25 25 26 26 26 26 26 27 28 28 29 29 29 30 30 30 30 31 30 31 31 32 32 32 33 33 33 33 32 32 31 31 29 28 28 29 29 30 30
23 23 23 23 24 24 24 23 23 23 23 24 24 25 25 26 26 27 28 29 29 29 30 30 31 31 31 31 31 31 32 32 32 31 30 30 31 30 29 29 29 29 29 30
21 22 22 22 21 21 21 21 22 22 22 22 22 23 23 25 26 27 27 28 28 29 29 29 29 29 29 30 30 30 30 30 30 31 30 30 30 30 29 29 29 29 30 30
19 20 20 20 20 21 21 21 21 22 23 23 23 24 24 24 25 25 25 26 26 26 26 26 27 27 26 27 28 28 28 28 28 28 28 29 30 30 30 30 30 29 30 30
17 18 18 18 19 20 21 21 22 22 23 24 24 24 24 24 24 23 22 23 24 23 24 23 23 23 24 25 26 26 26 27 27 27 27 28 29 30 30 30 30 30 30 31

GEFSNGP_500_meanwind_234.txt.gz
Wind_Speed
35 32 31 31 31 30 30 29 29 27 26 23 21 19 17 16 15 16 16 15 13 11 10 9 9 9 9 9 9 8 8 7 7 8 8 9 9 9 9 10 10 10 10 10
36 34 33 32 31 31 31 30 29 30 28 25 23 21 19 19 18 18 17 17 16 13 12 12 11 11 12 12 12 11 10 10 10 9 10 10 11 10 11 11 12 12 12 12
37 36 35 35 32 32 33 32 31 32 30 28 27 24 22 20 20 21 20 19 19 17 16 16 14 14 14 14 14 13 13 13 12 12 12 12 12 12 12 13 13 14 14 14
37 37 39 36 35 33 33 33 32 33 32 31 30 28 26 26 24 22 22 22 20 20 19 19 18 18 17 16 17 16 15 15 15 14 14 13 14 14 14 15 15 16 16 16
37 38 39 37 37 36 35 34 33 33 32 32 31 31 30 29 28 25 23 23 22 21 20 20 20 20 19 19 19 18 17 17 17 17 17 16 16 16 16 17 17 18 16 17
37 38 39 37 37 37 37 37 35 35 34 33 32 31 30 30 30 28 26 26 25 22 22 21 20 20 21 21 21 20 20 20 20 19 19 18 18 17 18 18 19 19 18 19
37 38 38 36 35 36 38 38 36 35 34 33 33 31 31 30 30 29 27 26 25 24 23 22 22 22 22 22 22 22 22 22 21 21 21 20 20 19 19 20 21 21 21 21
37 39 38 36 35 36 37 37 37 37 34 34 32 32 30 29 29 29 28 27 26 25 24 24 24 23 23 23 23 24 24 24 24 23 22 21 21 21 22 22 23 23 23 23
38 38 37 36 35 36 36 36 36 37 35 34 34 33 30 29 29 28 28 28 27 25 25 24 24 24 24 25 25 25 25 25 25 24 23 23 23 23 24 24 25 25 26 25
39 38 37 37 37 37 36 35 34 34 34 34 35 34 32 30 29 29 28 28 28 27 27 26 26 25 25 26 26 26 25 25 25 25 25 25 25 25 26 26 26 27 27 27
37 37 36 37 37 36 35 34 33 34 34 33 34 33 32 31 31 30 29 29 29 29 28 27 27 27 26 27 27 26 26 27 27 26 26 25 26 27 27 27 27 28 28 29
38 36 36 36 37 36 35 34 33 34 35 35 33 32 33 33 31 30 30 30 30 30 29 28 28 28 28 28 28 28 27 28 28 29 28 27 27 27 28 28 28 28 29 29
36 35 35 36 37 37 36 35 34 34 34 35 34 33 32 33 32 31 31 31 30 29 29 29 29 30 30 29 29 29 30 30 31 30 29 29 28 29 28 28 28 29 30 30
34 34 35 35 34 34 34 33 32 33 34 33 32 32 32 32 32 32 31 31 31 30 30 30 30 31 31 31 31 32 32 32 33 31 30 29 29 29 29 29 30 31 30 30
33 34 34 34 34 34 33 32 30 31 33 33 32 32 32 31 31 31 32 31 31 31 31 31 31 31 32 32 32 33 33 33 33 32 30 29 30 30 30 30 31 32 31 31
33 32 32 34 33 33 31 31 30 30 31 31 31 31 31 31 30 30 31 31 32 32 31 31 31 31 31 31 32 32 33 32 32 31 31 30 31 31 31 31 32 32 31 31
32 33 33 34 34 33 32 31 30 31 29 29 29 29 29 29 29 29 30 31 32 31 30 30 31 31 30 30 30 30 32 32 32 32 31 31 31 31 31 31 31 31 32 32
30 31 31 31 32 31 31 31 31 29 27 28 28 28 28 28 27 28 29 30 30 29 30 30 30 30 30 31 31 31 31 31 32 32 32 32 32 32 31 31 31 31 31 31
27 28 27 26 26 27 27 26 27 26 25 25 25 26 27 27 27 28 28 29 28 29 29 30 30 31 31 31 32 32 32 33 33 33 33 32 32 32 32 32 32 32 32 32
25 27 26 25 25 24 23 24 24 24 24 24 25 25 25 27 27 27 27 27 28 28 29 30 31 31 31 31 32 32 33 33 33 32 32 32 32 32 32 33 33 33 33 31
23 24 24 25 25 24 23 23 23 24 24 24 24 24 25 26 26 27 27 28 27 28 29 30 30 30 31 31 32 32 32 32 32 32 32 33 33 33 32 32 32 32 32 32
21 22 23 25 25 24 23 23 23 22 21 22 22 23 24 25 25 26 27 27 27 27 28 28 29 29 29 30 31 31 31 32 32 32 32 32 33 33 33 32 32 31 31 31
19 19 19 21 22 22 23 23 22 21 21 22 22 23 24 25 25 26 26 26 27 27 27 27 27 27 28 28 28 29 30 31 31 32 32 31 31 31 31 31 32 32 32 31
17 17 17 17 18 19 20 22 21 21 21 22 22 23 24 25 25 25 25 25 25 26 26 26 26 26 26 27 28 28 29 29 30 29 29 29 29 30 30 31 31 31 31 30
16 16 16 17 17 18 19 20 19 19 20 21 22 23 23 23 23 24 24 24 25 25 25 25 25 26 26 26 27 27 27 27 27 27 27 27 28 28 29 30 30 31 31 30
17 17 17 17 17 17 18 18 18 18 19 20 21 21 22 23 23 24 25 25 25 26 26 26 25 25 25 25 25 25 24 24 25 26 26 27 27 28 29 29 30 30 30 30
17 17 17 16 17 17 17 17 18 17 17 18 19 20 20 21 21 22 22 23 23 23 23 23 23 23 23 23 24 24 24 24 24 24 25 25 26 26 27 28 28 28 28 29

GEFSNGP_500_meanwind_240.txt.gz
Wind_Speed
33 34 35 34 33 33 33 33 32 29 27 24 21 20 19 18 17 16 15 15 14 14 13 13 13 13 13 12 12 11 11 11 10 10 9 9 9 9 9 9 10 10 11 11
34 35 36 36 34 33 33 34 33 31 29 26 24 23 21 20 18 18 17 17 16 15 16 16 15 15 15 15 15 14 14 13 13 13 12 12 12 11 11 12 12 13 13 14
35 35 37 38 36 35 34 34 33 33 31 28 26 25 24 22 21 20 19 19 17 17 17 17 18 18 17 17 18 18 17 16 16 16 15 15 15 14 14 15 15 15 16 16
36 35 38 37 36 36 35 34 33 33 32 30 28 27 26 24 23 22 21 21 20 19 19 19 20 20 21 21 21 21 20 19 19 19 19 18 17 17 17 17 17 17 17 17
38 37 37 37 36 35 35 35 34 33 32 30 29 29 28 26 24 23 23 22 21 21 20 20 21 21 22 22 23 23 22 21 21 21 20 20 19 19 19 19 19 19 20 20
40 40 39 36 35 35 35 36 35 34 33 32 31 31 29 26 25 24 25 24 23 23 23 23 22 23 24 24 24 24 23 23 24 24 23 22 21 21 21 21 21 21 21 22
40 40 38 36 34 34 36 35 34 34 33 32 32 31 29 27 26 26 25 24 25 25 25 25 25 25 25 25 25 26 25 25 25 24 24 23 22 23 24 24 24 23 23 23
40 40 38 35 33 33 33 33 32 32 31 31 30 30 30 29 27 27 27 26 26 26 26 26 27 27 27 27 27 27 26 26 25 25 25 25 25 25 26 26 25 25 25 25
41 39 36 34 33 32 32 32 32 32 32 31 31 31 31 30 29 28 28 28 28 28 28 28 28 28 28 27 27 28 27 27 26 26 26 26 27 27 27 26 26 27 27 27
39 37 35 34 33 33 33 33 32 32 32 32 32 31 31 31 31 30 30 30 29 29 29 29 29 29 29 28 28 28 28 28 27 27 27 27 27 27 26 27 27 28 28 28
38 36 35 34 34 33 34 34 33 32 32 32 32 33 33 33 32 31 32 31 31 31 31 31 31 30 30 29 29 29 29 28 28 28 28 28 27 28 28 28 28 28 28 28
36 35 36 35 35 34 34 35 34 33 33 32 32 33 33 33 33 33 33 33 33 33 33 33 32 30 30 30 29 29 29 29 29 29 30 30 29 28 28 29 28 29 28 29
35 36 35 36 35 34 34 34 34 34 32 31 31 32 33 34 34 33 33 33 33 33 33 32 31 30 30 30 30 31 30 30 30 31 30 30 30 30 29 30 30 30 29 29
34 34 34 34 33 32 33 33 32 32 31 31 31 31 32 33 33 32 32 33 33 33 32 31 30 30 31 31 31 32 32 31 31 32 31 31 31 32 32 31 31 30 30 30
32 32 33 33 32 32 31 32 32 31 31 30 30 29 30 31 31 31 31 32 32 32 31 30 30 30 31 31 31 32 32 32 32 32 32 33 33 33 33 33 32 32 32 31
31 32 32 32 31 31 30 30 31 31 31 30 29 29 29 29 30 29 30 31 31 30 30 29 30 30 31 31 31 31 31 31 32 33 34 34 34 34 34 34 33 33 33 32
30 30 30 29 29 29 29 29 29 29 30 29 29 30 29 29 29 29 29 29 29 29 28 28 29 30 31 31 31 31 31 32 32 32 33 33 34 34 34 34 33 34 33 34
29 29 29 29 29 28 28 28 28 28 28 29 30 30 30 29 28 28 28 28 26 26 27 28 28 28 29 29 29 30 31 31 32 32 33 33 33 34 34 34 33 34 34 35
27 27 27 27 28 29 28 27 28 28 28 29 29 29 29 28 29 29 30 28 26 26 27 27 27 28 28 28 30 31 31 32 33 33 33 34 34 35 34 34 34 34 35 35
26 26 25 25 25 26 27 27 28 27 27 27 28 27 27 27 27 26 26 26 26 26 27 27 27 28 28 29 30 30 30 31 32 33 33 34 35 34 34 33 34 34 34 34
25 25 25 24 24 24 25 25 25 25 25 26 27 26 25 25 26 26 26 26 26 26 27 28 27 28 28 29 29 29 30 31 32 32 33 33 32 32 32 33 33 33 34 34
25 24 23 23 23 22 23 23 23 23 24 25 26 25 25 25 25 24 24 25 25 26 26 27 26 27 28 28 29 29 30 31 32 32 31 31 30 30 31 31 31 32 33 34
22 23 22 22 22 21 21 22 22 23 23 24 25 24 25 24 24 24 23 24 25 25 26 26 26 27 27 27 28 29 29 30 30 30 30 29 29 30 30 30 31 32 32 33
19 20 20 20 20 20 20 20 22 22 22 22 24 24 24 23 23 23 24 24 24 24 25 25 26 26 26 26 27 27 28 28 28 28 28 29 29 29 30 30 31 32 32 32
16 16 17 17 17 17 18 18 19 21 21 21 21 21 22 21 22 22 22 22 22 23 24 24 24 25 25 26 26 27 27 27 27 27 27 28 28 28 29 30 30 30 31 31
15 16 16 16 16 16 17 17 17 17 18 19 20 20 20 20 20 20 20 21 21 22 22 22 23 24 25 26 26 26 26 27 27 27 27 27 28 28 29 29 29 28 29 29
14 14 15 16 15 15 15 16 16 16 16 17 18 19 20 19 19 19 20 21 22 22 22 23 24 24 25 25 25 26 26 26 26 27 27 27 28 28 28 28 28 27 27 27

GEFSNGP_500_meanwind_246.txt.gz
Wind_Speed
32 31 30 30 30 30 29 28 25 23 22 22 21 18 17 16 16 15 15 15 16 16 15 14 14 13 13 13 13 13 12 12 12 12 13 13 12 11 11 12 12 12 12 13
34 33 32 32 31 30 30 30 29 26 25 24 23 21 20 19 18 17 17 17 17 18 18 16 15 15 14 15 15 15 15 15 15 14 14 14 14 14 14 14 14 14 14 15
34 33 34 35 33 32 32 31 30 29 27 26 25 24 23 22 21 20 20 20 19 19 19 19 18 18 18 17 17 18 17 17 17 17 17 16 16 16 16 17 17 17 17 17
33 35 36 35 33 32 32 32 32 31 29 28 27 26 26 25 24 24 23 22 22 22 22 22 21 20 20 20 19 19 20 19 20 19 18 18 18 18 18 19 19 19 19 19
34 34 34 35 33 32 32 33 33 33 32 30 29 29 28 27 27 27 26 25 24 24 24 24 23 23 22 22 21 21 21 21 21 20 20 20 20 20 20 20 20 20 21 21
35 34 34 35 33 32 33 34 33 33 32 31 30 31 30 29 28 28 27 27 27 26 26 25 25 25 25 24 23 23 23 23 22 22 22 22 22 22 22 21 21 22 22 22
36 35 35 35 33 32 34 34 32 32 32 31 31 31 31 30 30 29 29 28 27 27 26 25 26 26 26 25 24 24 24 24 24 24 24 24 24 23 23 23 23 23 24 25
36 35 36 36 34 34 34 33 32 31 31 31 31 30 30 30 29 29 28 27 27 28 29 28 28 27 26 25 26 26 26 26 26 26 26 26 26 25 25 24 25 25 25 26
38 37 36 35 34 34 33 33 32 32 31 31 31 31 31 30 30 30 29 28 28 28 29 29 30 29 27 27 27 27 27 27 27 27 28 28 28 27 26 26 26 26 27 27
39 38 37 35 34 34 34 34 33 32 31 31 31 31 31 31 30 30 30 29 29 29 29 29 29 29 28 28 29 29 28 29 29 28 28 28 28 28 28 27 27 27 28 29
39 39 38 36 35 34 34 34 34 33 33 32 32 31 31 31 30 30 30 30 29 29 29 29 29 30 29 29 29 29 29 29 29 29 28 28 28 28 28 28 29 29 30 31
38 38 37 36 35 35 34 34 34 34 33 33 32 32 31 31 31 30 31 31 30 30 30 29 29 29 29 29 30 30 29 29 29 29 29 29 29 29 29 29 29 30 31 32
36 37 36 35 35 35 35 34 34 34 33 33 32 32 31 31 31 31 31 31 31 30 30 29 29 29 29 29 30 30 30 30 30 30 30 30 30 30 30 31 31 32 32 32
35 35 35 34 34 34 34 34 35 35 35 34 33 33 32 31 32 31 31 30 30 29 29 29 29 29 29 29 29 30 31 31 31 32 31 31 32 31 31 32 32 32 32 33
33 34 34 33 33 33 34 34 34 35 35 35 33 32 32 31 31 31 31 31 30 30 29 29 29 30 30 30 30 30 31 32 32 32 32 31 32 32 32 33 33 33 33 33
32 32 32 32 31 31 32 32 33 33 33 33 33 32 32 31 31 30 30 30 30 30 30 30 30 31 31 31 32 32 32 32 32 32 32 32 32 32 32 32 32 33 33 33
30 30 30 30 29 29 29 30 30 30 30 31 31 31 31 31 30 29 30 30 30 30 30 30 30 31 31 32 32 32 32 32 32 32 32 31 32 32 32 32 32 32 32 32
28 28 28 28 27 28 29 29 30 29 29 29 29 30 31 30 29 29 29 29 29 30 30 30 31 31 31 32 32 32 33 33 32 31 31 31 31 31 32 32 32 32 32 33
27 27 27 27 27 27 28 29 30 30 30 30 30 30 29 29 29 29 28 28 28 29 30 30 30 30 30 31 31 32 32 31 30 30 29 29 29 30 31 31 32 32 33 33
25 25 26 26 27 28 28 29 29 28 28 29 29 29 29 29 29 29 29 29 29 29 29 29 30 30 30 31 32 32 31 30 30 30 30 30 30 30 31 31 31 32 33 33
23 23 23 23 24 25 25 26 26 26 27 27 27 27 28 29 29 29 29 29 29 28 28 28 28 29 30 30 30 29 28 28 28 28 29 29 29 30 30 31 31 32 33 33
21 21 21 21 22 24 24 25 24 24 25 26 26 26 26 26 26 27 28 28 28 28 27 27 28 28 29 29 28 27 26 26 27 27 28 29 29 30 30 31 31 32 32 33
20 20 20 20 20 22 22 23 23 23 24 24 24 23 23 24 24 25 26 25 26 26 25 26 26 27 27 27 27 26 26 26 27 28 29 30 31 31 31 32 33 33 33 34
17 17 18 18 19 20 21 21 21 22 22 22 23 22 21 22 22 22 22 22 22 22 23 24 24 24 24 25 25 25 26 26 27 28 30 31 31 31 32 33 33 33 33 34
16 15 15 16 18 19 20 20 20 20 20 20 20 19 20 20 20 20 20 21 21 21 22 22 22 23 24 24 25 25 25 26 27 29 30 31 31 31 32 33 33 33 33 32
15 15 15 15 16 17 18 19 19 19 18 19 19 19 19 20 20 20 20 20 21 21 22 22 22 22 22 23 24 24 25 26 28 30 31 31 31 31 32 32 32 32 31 31
14 14 14 15 15 16 16 17 18 19 19 19 19 19 19 19 19 19 20 20 21 21 21 21 21 22 22 23 24 25 25 27 28 29 30 30 30 31 31 31 31 31 30 30

GEFSNGP_500_meanwind_252.txt.gz
Wind_Speed
31 26 24 25 24 25 26 25 23 21 23 25 24 22 20 20 19 18 17 16 16 16 16 16 15 15 15 14 13 13 13 12 12 12 12 11 11 11 11 11 12 12 12 12
34 30 25 25 26 25 26 27 25 23 23 27 27 23 22 21 20 20 19 19 18 18 18 18 17 17 16 16 15 14 14 14 14 14 14 13 13 13 14 14 13 14 14 14
35 32 30 30 27 26 26 26 27 27 28 28 27 27 25 23 21 22 22 21 20 19 19 20 20 19 18 18 17 17 17 17 16 16 16 16 15 15 15 15 16 15 16 15
35 33 35 31 29 28 28 28 28 29 30 30 29 27 26 26 25 25 24 23 23 22 21 21 21 21 21 21 20 19 19 19 19 18 18 17 17 17 17 17 18 17 17 17
35 34 34 31 30 30 30 30 29 30 31 31 30 29 28 28 27 26 25 25 25 24 24 23 24 24 23 22 22 22 21 21 20 20 18 18 18 18 18 19 19 19 19 19
35 34 33 31 30 30 31 33 32 32 32 31 31 30 30 29 29 28 26 26 26 26 26 25 25 24 24 24 23 22 22 23 22 20 19 19 19 20 21 21 21 21 21 21
35 34 34 30 30 29 31 33 33 34 34 33 33 32 31 30 30 29 28 27 27 26 27 26 26 25 25 25 24 24 24 24 23 22 22 22 22 22 23 23 23 23 23 23
36 35 34 30 30 31 30 31 33 34 33 33 32 32 32 31 31 30 29 28 27 27 27 27 27 27 26 26 26 25 25 25 24 23 23 24 25 25 25 25 25 25 25 25
39 39 37 34 34 34 33 33 33 33 33 33 33 32 32 31 31 31 30 29 29 28 28 28 28 27 28 28 27 27 27 27 26 26 26 26 26 27 26 26 27 26 26 26
41 41 40 37 36 35 35 35 35 35 34 35 34 33 32 32 31 31 31 30 30 29 29 28 29 28 28 28 28 28 29 28 28 28 28 28 27 27 27 27 27 27 28 28
41 41 41 41 38 37 37 37 36 36 35 35 35 34 32 32 31 31 30 30 30 29 29 29 29 29 29 29 29 30 29 29 29 29 28 28 28 28 29 29 29 29 29 30
41 40 40 39 38 38 38 37 37 36 36 35 36 34 32 32 32 31 31 30 30 30 29 29 29 29 29 30 30 30 30 30 29 29 30 30 30 30 30 30 31 31 31 31
41 41 39 38 38 38 39 38 37 36 36 36 36 35 34 34 33 32 31 31 30 30 30 29 29 30 30 30 30 30 30 30 30 30 31 31 31 32 32 31 32 32 32 33
39 39 37 36 37 38 39 37 36 36 36 36 36 36 36 35 33 33 32 31 31 30 30 30 29 29 29 30 30 30 30 30 30 30 31 31 32 32 32 32 32 33 32 33
36 37 38 37 38 37 36 36 35 35 35 35 34 34 34 33 33 33 32 31 31 31 30 30 29 29 30 30 30 31 31 31 31 31 31 32 32 32 32 32 33 33 33 33
36 36 36 35 35 36 36 35 35 35 34 34 34 33 33 33 33 32 32 32 32 31 31 31 31 30 30 30 30 30 30 30 31 31 32 32 32 32 33 33 33 33 33 33
34 34 34 34 35 35 35 35 34 34 34 34 34 33 33 34 34 34 34 33 32 32 32 32 31 31 30 30 30 31 30 31 31 32 32 32 33 33 33 33 33 33 33 32
32 32 33 33 33 33 34 34 34 33 33 33 33 34 33 33 33 33 33 33 32 32 32 32 32 31 31 31 31 31 31 31 32 32 32 33 33 33 33 33 33 33 32 33
31 32 32 32 31 31 30 31 31 32 32 33 33 32 32 32 32 32 32 32 32 32 32 32 32 32 32 32 31 31 31 32 32 33 33 32 32 32 33 33 33 34 34 33
29 29 29 29 29 29 28 28 29 30 31 31 31 31 31 31 31 31 31 32 32 32 32 33 32 31 31 30 30 31 31 31 32 32 32 33 32 32 33 33 34 34 34 34
28 28 29 30 29 29 28 28 27 28 29 30 30 30 30 30 31 31 31 31 31 31 31 31 31 30 30 31 31 31 31 32 31 32 32 32 31 32 33 33 34 34 34 34
25 26 28 29 29 29 28 28 28 28 29 29 28 28 28 28 29 29 29 30 29 29 29 29 29 29 29 30 30 31 31 31 31 30 30 30 30 30 32 33 34 34 34 34
23 24 25 27 27 27 26 26 25 25 26 26 27 27 28 28 28 28 28 28 28 28 28 28 28 29 29 30 29 30 30 29 28 29 29 29 30 31 32 33 34 33 33 32
22 22 23 24 24 24 24 24 24 24 23 24 25 26 26 26 26 27 26 26 25 27 27 27 28 28 28 28 28 28 28 28 28 29 29 29 29 30 31 32 32 31 32 32
20 20 21 21 22 22 22 23 23 22 22 22 22 23 24 23 23 23 24 24 24 26 27 27 26 26 25 25 25 26 26 27 26 27 27 28 29 29 29 30 30 31 32 32
17 18 19 19 19 19 19 20 20 20 20 20 21 21 21 22 22 22 23 23 23 23 24 23 23 23 24 24 24 25 25 25 25 26 27 29 29 29 29 30 30 31 32 32
14 15 15 16 16 16 16 17 17 17 18 18 18 18 19 20 20 21 21 22 22 22 21 22 22 22 23 23 23 23 23 24 25 26 27 28 28 29 29 30 31 32 33 33